GSAT-31

Last updated on Wed May 14 2025 00:02:44 GMT+0000 (Coordinated Universal Time)

1 44035U 19007B 25133.53219322 .00000141 00000+0 00000+0 0 9998 2 44035 0.0627 264.2654 0003043 86.7156 120.0332 1.00274195 22964
UTC large
Height (km)
Speed (km/s)
/
Latitude / Longitude
Inclination (degrees)
Orbital Period (minutes)
Azimuth
Elevation
Range (km)
Doppler Factor

Next 0 passes for location: London (51.5072 / 0.1276)

Sorry there are no passes over London.